Wetbulb
42.24 37.22 34.92 37.71 38.78 39.53 38.03 36.05 35.44 38.69 41.45 39.02 37.90 38.21 40.13 40.94 39.62 38.73 38.39 38.81 39.16 39.01 38.63 40.36 42.68 43.54 45.04 45.39 46.93 47.45 46.99 47.07 46.69 46.09 44.17 42.51 40.16 39.33 38.73 38.13 38.49 39.22 40.12 40.44
38.73 35.50 41.25 42.35 41.46 40.03 38.62 36.44 35.92 39.14 40.52 38.70 37.61 37.55 40.43 40.28 40.95 41.43 41.58 40.21 39.80 36.39 37.13 39.46 41.32 42.63 43.16 44.58 46.09 47.61 47.93 48.34 48.24 46.82 43.66 41.38 38.37 36.96 35.82 36.30 36.37 36.87 37.14 37.28
36.83 40.65 44.09 42.29 40.56 39.28 37.84 36.38 35.37 37.46 37.85 37.44 35.16 34.56 37.44 41.02 41.37 41.29 42.62 42.37 41.03 37.44 36.91 37.75 39.61 41.60 42.14 43.34 45.43 47.59 48.03 47.49 44.04 41.75 40.00 38.10 36.51 34.85 34.29 33.58 34.14 34.59 35.57 35.61
39.32 43.41 42.10 40.14 39.55 40.57 35.39 40.31 39.90 38.55 34.99 30.59 35.57 29.79 35.43 38.31 39.69 39.86 41.95 39.73 39.66 37.23 38.00 38.89 39.58 40.02 41.17 42.62 46.24 46.18 44.97 42.78 41.33 41.03 38.83 36.90 35.05 32.49 30.98 31.98 32.45 33.14 33.63 33.68
38.05 39.23 38.70 38.88 39.27 41.18 37.68 39.57 37.89 36.83 33.30 31.25 31.70 28.97 33.69 39.27 39.61 42.43 41.71 40.93 39.18 37.54 37.72 38.37 39.66 40.58 39.45 40.99 42.53 42.66 42.18 41.72 39.88 38.89 36.87 35.01 32.67 32.80 32.62 31.78 31.34 31.22 31.68 32.02
38.98 40.73 41.04 40.67 39.67 41.48 40.37 37.80 36.75 34.72 32.86 26.50 33.19 31.83 32.87 37.60 40.56 42.38 39.90 37.76 36.93 36.62 37.20 38.10 38.45 37.65 36.44 37.34 37.96 38.14 36.26 36.06 36.82 36.59 35.14 33.89 32.42 31.76 31.11 30.41 30.00 30.06 30.18 30.49
37.11 38.03 39.76 41.06 37.38 38.91 38.51 34.72 27.27 25.97 24.53 26.69 32.66 30.36 37.01 38.92 40.62 41.37 40.05 37.48 36.41 36.73 36.12 36.40 35.61 35.77 34.18 33.44 33.29 33.83 34.54 33.94 34.54 34.37 33.68 33.40 32.69 32.65 31.40 30.45 29.97 29.50 29.25 28.87
33.40 29.99 37.87 40.38 39.47 37.01 35.39 35.09 28.54 21.76 23.55 25.84 29.11 27.04 34.31 39.64 39.71 38.31 40.22 40.04 37.57 36.35 36.75 35.72 35.07 34.37 33.61 33.31 32.54 32.70 32.59 33.00 33.70 33.86 33.33 33.60 33.42 33.24 32.57 31.81 30.98 29.92 29.22 28.75
33.18 33.64 38.69 38.57 41.06 41.89 34.09 32.79 38.82 31.04 18.94 22.10 29.17 32.38 37.39 36.31 36.65 35.73 36.77 37.32 35.88 35.68 35.37 33.92 33.32 33.37 33.12 32.19 31.94 33.11 32.82 32.32 32.63 33.14 33.16 32.91 32.51 32.12 31.35 30.05 29.49 28.89 28.33 28.99
39.32 33.39 35.59 35.29 39.79 37.95 36.65 38.07 30.36 29.65 19.85 18.83 27.05 28.34 33.00 33.81 36.04 34.86 34.72 34.76 34.85 35.12 33.82 33.35 33.03 32.64 33.18 33.38 31.10 30.69 31.53 32.18 31.62 31.75 32.44 32.13 30.80 30.60 30.14 29.98 28.49 27.96 27.60 27.67
40.10 38.84 31.19 34.15 33.20 34.31 34.17 32.43 33.66 34.03 29.28 22.82 21.54 30.34 36.25 38.81 38.93 34.94 36.16 36.52 35.50 35.37 34.17 33.61 33.58 32.56 32.41 31.33 31.12 30.97 30.89 30.78 30.93 31.48 30.30 30.42 30.05 29.98 29.52 28.80 27.78 27.16 26.72 26.08
41.04 38.38 28.09 31.44 34.64 35.43 35.77 35.26 33.85 29.53 26.91 27.83 26.93 33.14 36.32 36.22 38.07 37.16 36.81 37.53 37.80 37.46 35.56 34.13 33.77 31.91 31.55 31.17 30.55 30.30 30.45 30.37 30.59 30.95 30.25 29.72 29.75 29.24 28.42 27.59 26.75 26.12 25.60 25.54
41.08 35.58 28.69 29.15 31.73 33.58 33.37 35.65 38.71 36.67 30.64 30.84 25.52 32.55 35.05 35.75 35.74 35.93 35.13 35.87 36.95 36.39 34.94 33.76 33.15 31.64 31.74 31.10 30.64 30.51 30.52 30.51 30.53 30.48 29.73 28.77 28.35 27.89 27.15 26.46 26.11 25.54 24.69 24.15
43.96 36.34 34.87 32.41 33.69 34.73 30.32 32.47 35.38 36.54 30.90 30.76 33.00 36.11 32.82 34.19 35.49 34.91 35.01 35.69 35.36 36.07 35.29 34.25 33.33 33.00 32.46 31.85 30.94 30.35 30.24 30.67 30.30 29.84 29.28 28.29 27.66 27.57 27.07 26.64 25.82 25.13 24.26 23.31
41.88 34.55 34.19 37.53 36.80 35.23 32.78 32.85 34.47 33.63 35.42 32.76 36.51 36.06 39.70 38.75 36.65 37.32 35.98 34.82 34.86 35.20 35.10 34.60 33.80 33.28 32.63 31.51 30.85 30.75 30.81 30.83 30.88 29.94 28.87 28.42 28.11 27.18 26.91 26.27 25.62 24.65 24.16 23.37
39.62 34.01 35.63 34.30 35.11 35.54 34.31 33.90 33.64 35.03 35.92 36.36 37.13 36.58 40.44 41.89 40.80 36.07 36.67 36.36 35.69 35.53 35.88 35.82 35.10 33.92 32.24 31.89 31.38 30.86 30.90 30.86 30.78 30.05 29.10 28.67 28.04 28.03 26.97 26.24 25.86 24.60 23.55 22.89
36.62 34.95 33.10 32.08 33.93 34.12 31.42 35.31 36.84 37.16 36.63 36.09 32.15 37.95 37.14 38.65 38.89 35.94 35.30 36.79 36.86 37.04 36.68 36.36 35.44 34.46 33.45 32.82 33.12 31.19 31.14 30.93 29.58 29.33 28.65 28.02 28.45 27.51 27.03 26.99 25.11 23.88 23.08 21.23
34.51 35.43 34.25 32.39 32.61 25.79 34.33 38.71 40.54 38.74 39.69 39.41 37.28 37.58 35.52 38.77 39.77 37.74 37.04 37.53 37.37 37.81 37.36 37.02 36.59 35.89 34.21 33.63 32.84 32.13 30.38 29.67 29.36 28.62 28.12 28.24 27.79 27.76 26.88 25.44 25.32 23.04 21.49 20.70
40.19 35.74 32.78 30.52 30.83 32.26 34.76 30.73 34.05 35.29 36.11 41.27 40.37 40.83 41.32 36.46 34.05 34.73 36.51 37.28 39.03 38.01 38.51 38.16 37.85 37.21 35.20 33.28 32.88 31.03 29.20 29.25 29.08 28.67 28.46 28.46 28.96 27.87 26.37 25.32 24.13 23.38 21.65 20.29
34.66 38.20 34.08 30.37 28.55 26.95 29.41 28.40 31.45 36.93 32.16 37.41 40.00 40.80 40.83 33.92 32.45 39.01 34.97 35.49 36.04 36.59 36.69 35.54 35.49 35.03 34.79 33.55 31.68 30.35 29.29 28.76 28.28 28.94 29.06 29.24 29.69 28.48 26.68 26.44 24.22 23.07 22.16 21.81
29.41 31.15 29.53 31.11 30.15 29.75 29.17 27.26 29.91 28.90 29.70 25.75 29.08 32.42 32.13 34.40 37.23 35.60 34.39 34.31 34.73 34.66 34.69 35.18 35.10 34.72 34.84 33.30 32.15 30.43 29.09 27.99 29.27 28.47 27.20 27.19 27.36 27.80 27.26 25.96 22.63 19.40 20.20 18.93
28.43 27.53 27.15 29.53 27.75 26.09 31.40 28.43 30.68 31.24 28.95 29.56 29.69 30.19 30.86 30.27 29.42 30.14 30.77 30.75 31.52 32.36 31.79 31.51 30.90 30.03 29.45 30.39 31.10 27.42 27.43 28.39 25.17 25.13 25.31 26.23 26.14 26.20 24.47 22.94 19.09 18.55 18.09 16.13
28.01 30.63 28.32 31.14 30.80 27.92 28.26 29.71 30.74 31.01 28.88 28.83 30.55 29.57 29.68 28.23 27.17 27.46 27.42 28.48 29.00 29.52 29.35 28.99 29.54 27.87 27.69 26.40 28.28 26.94 25.09 24.41 23.08 22.94 23.49 22.78 21.51 22.66 22.61 21.66 16.84 14.01 15.13 17.05
27.85 29.03 31.51 30.99 30.74 27.82 27.58 31.59 29.80 28.51 27.60 28.13 29.73 30.45 27.98 26.92 26.97 26.72 26.10 26.31 26.29 24.59 24.75 22.90 24.66 23.52 21.64 19.81 22.55 20.20 21.36 20.77 20.27 18.71 16.58 15.07 18.17 13.65 11.65 15.30 16.43 16.67 14.80 14.41
29.37 29.91 28.21 26.68 25.24 27.27 29.50 29.85 31.86 30.26 28.43 27.40 27.33 28.58 28.78 27.27 26.22 26.17 24.44 23.31 23.78 23.48 21.92 21.73 22.18 20.35 18.60 17.34 16.14 13.89 16.27 17.77 16.58 13.93 14.61 14.54 12.56 12.36 11.47 12.35 11.82 13.53 11.02 15.15
25.63 26.84 27.69 27.42 29.76 31.43 31.14 31.63 31.75 31.87 28.52 27.49 27.14 26.14 26.18 26.78 26.16 25.34 24.06 23.61 23.31 22.13 19.47 18.89 16.88 18.40 14.17 14.93 11.71 8.46 8.96 14.33 16.40 14.71 13.99 12.97 12.38 10.50 10.31 10.47 8.77 20.01 19.92 21.51
MSLP
1017.25 1017.75 1017.82 1017.58 1017.88 1017.67 1017.79 1017.90 1017.68 1017.09 1016.88 1017.47 1017.71 1017.68 1017.66 1017.91 1018.57 1018.84 1019.38 1019.70 1020.21 1020.73 1021.42 1021.95 1022.38 1022.76 1022.98 1023.07 1023.18 1023.36 1023.67 1024.00 1024.04 1024.41 1024.77 1025.38 1026.04 1026.67 1026.89 1027.30 1027.56 1027.66 1027.82 1028.04
1017.97 1017.57 1017.03 1017.41 1017.69 1017.92 1017.86 1017.88 1017.54 1017.17 1017.05 1017.61 1017.57 1017.54 1017.11 1017.24 1017.13 1017.18 1017.64 1018.42 1019.18 1020.33 1021.23 1021.76 1022.19 1022.52 1022.73 1022.78 1022.83 1023.05 1023.29 1023.72 1024.03 1024.27 1024.85 1025.45 1026.49 1027.39 1027.58 1027.83 1028.19 1028.32 1028.55 1028.71
1017.30 1016.62 1016.21 1017.21 1017.41 1017.75 1017.64 1017.58 1017.53 1017.68 1017.60 1017.76 1017.83 1017.28 1016.80 1015.90 1015.80 1015.89 1016.35 1016.92 1017.98 1018.95 1020.15 1021.19 1021.85 1022.31 1022.48 1022.58 1022.66 1022.75 1023.04 1023.50 1023.95 1024.43 1025.14 1026.08 1027.03 1027.78 1028.13 1028.42 1028.67 1029.14 1029.10 1029.30
1016.97 1016.30 1016.37 1016.88 1017.00 1017.29 1017.31 1017.02 1017.26 1017.77 1018.46 1018.42 1018.08 1016.61 1015.98 1015.37 1015.23 1015.22 1015.16 1015.94 1016.94 1018.36 1019.54 1020.42 1021.38 1022.08 1022.26 1022.34 1022.37 1022.66 1022.98 1023.45 1024.06 1024.49 1025.31 1025.87 1026.67 1027.70 1028.69 1028.74 1029.26 1029.53 1029.68 1029.86
1015.52 1015.76 1016.20 1016.45 1016.28 1016.72 1016.99 1017.04 1017.58 1018.09 1018.75 1019.03 1018.68 1018.36 1014.88 1014.69 1014.54 1014.08 1013.78 1014.91 1016.02 1017.24 1018.47 1019.68 1020.65 1021.53 1022.06 1022.29 1022.44 1022.76 1023.10 1023.54 1024.07 1024.66 1025.37 1026.09 1027.11 1027.97 1028.62 1029.12 1029.59 1030.10 1030.39 1030.40
1015.34 1015.28 1015.47 1015.56 1016.20 1016.32 1017.10 1017.71 1018.54 1019.12 1019.69 1019.44 1018.51 1018.43 1013.84 1014.08 1012.93 1012.64 1013.12 1014.33 1015.70 1017.03 1018.25 1019.28 1020.27 1021.11 1021.91 1022.37 1022.66 1022.96 1023.26 1023.76 1024.11 1024.63 1025.42 1026.08 1026.87 1027.95 1028.74 1029.44 1029.87 1030.36 1030.59 1030.68
1015.55 1015.32 1015.26 1015.31 1016.24 1016.68 1017.04 1018.33 1019.79 1020.60 1020.85 1018.86 1017.78 1017.53 1013.28 1012.90 1012.21 1012.17 1012.76 1013.81 1015.21 1016.47 1017.79 1018.90 1019.89 1020.83 1021.64 1022.27 1022.75 1023.20 1023.38 1023.92 1024.22 1024.79 1025.57 1026.30 1027.06 1027.69 1028.24 1028.86 1029.40 1029.99 1030.52 1030.91
1015.04 1015.19 1014.85 1014.79 1014.88 1015.67 1016.83 1017.46 1018.68 1019.62 1020.41 1019.33 1018.40 1016.13 1012.88 1011.76 1011.54 1011.91 1012.31 1013.12 1014.67 1016.17 1017.29 1018.31 1019.29 1020.48 1021.44 1022.12 1022.63 1023.08 1023.46 1023.97 1024.35 1024.83 1025.55 1026.32 1026.98 1027.58 1028.22 1028.68 1029.38 1030.01 1030.49 1030.93
1014.27 1014.19 1013.79 1014.11 1014.51 1014.93 1016.82 1017.12 1017.34 1018.98 1020.32 1019.87 1017.09 1014.58 1012.69 1012.12 1012.05 1012.38 1012.69 1013.51 1014.55 1015.56 1016.63 1017.94 1019.11 1020.04 1020.99 1021.83 1022.45 1022.90 1023.41 1023.95 1024.35 1024.87 1025.60 1026.39 1027.03 1027.58 1028.16 1028.87 1029.37 1029.90 1030.62 1031.13
1013.04 1013.91 1014.41 1014.66 1014.60 1015.30 1015.56 1016.32 1017.87 1019.17 1020.08 1018.91 1016.10 1014.33 1012.25 1011.98 1011.98 1012.40 1013.16 1013.84 1014.81 1015.79 1016.84 1017.75 1018.63 1019.65 1020.67 1021.54 1022.25 1022.84 1023.31 1023.71 1024.20 1024.81 1025.48 1026.19 1026.88 1027.47 1028.08 1028.61 1029.39 1030.04 1030.68 1031.32
1012.64 1013.38 1015.10 1015.16 1014.71 1014.51 1015.49 1015.84 1016.39 1017.13 1018.04 1017.48 1015.77 1011.75 1010.20 1010.24 1010.53 1011.58 1012.44 1013.12 1013.97 1015.13 1016.19 1017.25 1018.33 1019.37 1020.30 1021.31 1022.09 1022.71 1023.24 1023.69 1024.35 1024.97 1025.63 1026.32 1026.95 1027.41 1027.85 1028.41 1029.23 1029.95 1030.45 1031.04
1011.74 1012.90 1014.55 1014.59 1014.28 1014.32 1013.99 1014.23 1014.78 1015.67 1016.25 1016.02 1015.00 1008.28 1009.47 1009.59 1010.18 1010.90 1011.70 1012.66 1013.59 1014.49 1015.68 1016.81 1017.78 1018.93 1019.96 1020.81 1021.60 1022.22 1022.84 1023.41 1024.04 1024.70 1025.42 1026.11 1026.61 1027.22 1027.98 1028.82 1029.42 1029.91 1030.09 1030.68
1011.35 1012.46 1013.86 1014.29 1014.74 1014.39 1014.07 1014.00 1013.33 1013.75 1014.58 1013.34 1014.40 1007.42 1009.28 1009.24 1009.90 1010.60 1011.61 1012.50 1013.22 1014.15 1015.26 1016.40 1017.45 1018.25 1019.23 1020.15 1021.03 1021.82 1022.63 1023.31 1023.86 1024.49 1025.22 1026.01 1026.64 1027.33 1028.20 1028.92 1029.41 1029.72 1030.10 1030.73
1010.00 1011.19 1011.26 1010.89 1011.35 1012.27 1013.41 1013.00 1013.08 1013.35 1013.07 1012.25 1010.11 1008.42 1009.21 1009.36 1010.00 1010.70 1011.40 1012.02 1012.96 1013.84 1014.69 1015.65 1016.63 1017.43 1018.47 1019.45 1020.41 1021.34 1022.05 1022.66 1023.41 1024.15 1024.89 1025.70 1026.46 1027.13 1027.84 1028.57 1029.04 1029.42 1029.88 1030.51
1009.77 1010.66 1011.08 1010.40 1010.84 1011.26 1011.43 1011.56 1011.94 1011.85 1009.80 1011.21 1006.36 1008.51 1008.19 1008.84 1009.33 1009.69 1010.75 1011.91 1012.73 1013.40 1014.08 1014.54 1015.37 1016.32 1017.60 1018.76 1019.72 1020.61 1021.43 1022.10 1022.86 1023.79 1024.56 1025.19 1025.97 1026.72 1027.46 1028.22 1028.73 1029.29 1029.80 1030.23
1009.78 1010.12 1010.86 1010.47 1010.72 1010.96 1011.38 1011.13 1010.27 1010.17 1009.83 1009.64 1008.50 1006.35 1007.31 1007.75 1008.47 1009.50 1009.87 1010.70 1011.44 1011.89 1012.43 1013.40 1014.58 1015.67 1016.60 1017.61 1018.67 1019.78 1020.73 1021.63 1022.40 1023.23 1023.90 1024.79 1025.68 1026.34 1026.98 1027.62 1028.26 1029.03 1029.56 1030.16
1009.91 1010.51 1011.22 1009.91 1010.47 1011.12 1010.90 1007.60 1009.42 1009.04 1008.50 1008.30 1008.05 1003.79 1007.62 1007.81 1008.29 1008.79 1009.28 1009.67 1009.98 1010.36 1010.94 1012.01 1012.99 1014.17 1015.37 1016.48 1017.67 1018.79 1019.86 1021.03 1022.00 1022.71 1023.38 1024.20 1025.08 1025.92 1026.60 1027.40 1028.12 1028.56 1029.23 1029.77
1009.85 1010.66 1010.79 1009.80 1010.34 1009.08 1005.77 1006.00 1006.60 1007.36 1006.40 1007.24 1006.74 1005.61 1006.83 1007.03 1007.37 1007.36 1007.76 1008.44 1008.94 1009.49 1010.05 1011.06 1012.06 1013.48 1014.73 1015.90 1017.20 1018.47 1019.52 1020.51 1021.41 1022.20 1022.95 1023.66 1024.54 1025.50 1026.37 1027.06 1027.60 1028.23 1028.72 1029.09
1008.82 1009.81 1009.69 1009.41 1008.52 1007.44 1006.25 1006.22 1006.36 1006.91 1005.36 1005.79 1005.82 1005.52 1006.35 1007.02 1007.65 1007.18 1007.42 1007.52 1007.88 1008.82 1009.42 1010.06 1011.17 1012.26 1013.85 1015.07 1016.32 1017.60 1018.74 1019.66 1020.69 1021.48 1022.25 1023.07 1023.86 1024.80 1025.63 1026.35 1026.86 1027.40 1028.25 1028.80
1008.88 1008.56 1008.87 1008.68 1007.85 1006.84 1005.43 1005.42 1005.44 1006.21 1005.72 1005.37 1005.47 1005.36 1005.86 1007.56 1008.32 1006.39 1007.53 1007.82 1008.16 1008.69 1009.38 1010.32 1011.51 1012.59 1013.47 1014.53 1015.81 1017.10 1018.23 1019.01 1019.72 1020.42 1021.21 1022.15 1023.05 1023.76 1024.70 1025.32 1026.20 1026.81 1027.34 1027.90
1008.95 1008.59 1008.03 1007.85 1007.18 1006.88 1006.46 1006.57 1006.56 1007.02 1006.36 1006.24 1006.34 1006.45 1006.96 1007.50 1007.26 1007.17 1007.51 1008.36 1008.76 1009.39 1009.90 1010.74 1011.69 1012.75 1013.19 1014.38 1015.51 1016.87 1017.66 1018.33 1018.89 1019.98 1021.01 1021.91 1022.95 1023.44 1024.00 1024.86 1025.67 1026.29 1027.04 1027.63
1008.05 1008.32 1008.27 1008.48 1007.75 1007.24 1006.55 1007.39 1007.50 1006.63 1006.68 1006.84 1006.93 1007.15 1007.32 1007.68 1007.96 1008.40 1008.92 1009.50 1009.87 1010.46 1011.11 1011.82 1012.74 1013.46 1014.25 1015.13 1016.20 1017.49 1018.09 1018.34 1019.10 1019.91 1020.94 1021.71 1022.54 1023.11 1023.87 1024.61 1025.35 1025.97 1026.60 1027.31
1007.60 1006.37 1006.95 1007.42 1006.81 1006.89 1006.72 1007.15 1007.17 1007.37 1007.38 1007.31 1007.39 1007.56 1007.78 1008.30 1008.86 1009.52 1010.07 1010.56 1011.01 1011.55 1012.02 1012.58 1013.35 1014.43 1015.27 1015.68 1016.19 1017.35 1017.78 1018.54 1019.47 1020.32 1021.01 1021.60 1022.32 1022.88 1023.43 1024.16 1024.97 1025.87 1026.41 1027.00
1007.05 1006.64 1006.77 1007.35 1007.07 1007.28 1007.37 1007.35 1007.66 1007.83 1007.93 1008.13 1008.22 1008.34 1008.65 1009.10 1009.77 1010.32 1011.04 1011.74 1012.22 1012.78 1013.23 1013.63 1014.30 1015.31 1016.30 1016.70 1017.32 1017.98 1018.47 1018.88 1019.57 1020.38 1021.23 1021.89 1022.50 1023.24 1023.59 1024.05 1024.58 1025.22 1025.92 1026.47
1006.86 1007.18 1007.03 1007.16 1007.38 1007.85 1007.64 1007.77 1007.80 1008.11 1008.29 1008.68 1008.62 1008.66 1008.86 1009.54 1010.46 1011.10 1011.81 1012.59 1013.05 1013.36 1013.88 1014.42 1015.26 1016.25 1017.16 1017.65 1018.41 1018.91 1019.01 1019.40 1020.25 1020.86 1021.56 1022.19 1022.77 1023.47 1024.16 1024.37 1024.58 1024.90 1025.24 1025.54
1006.69 1006.56 1006.40 1006.18 1006.13 1006.44 1006.69 1006.86 1007.59 1008.42 1008.78 1008.70 1009.11 1009.55 1009.55 1009.79 1010.72 1011.47 1012.41 1013.09 1013.61 1014.20 1014.88 1015.67 1016.54 1017.28 1018.11 1018.58 1019.33 1019.83 1019.56 1019.71 1020.47 1021.37 1021.91 1022.45 1023.03 1023.72 1024.25 1024.73 1025.06 1024.77 1025.02 1025.03
Wind_Speed
3 4 9 13 10 6 3 3 4 5 4 5 10 9 10 11 8 9 10 11 13 12 8 8 7 7 7 7 8 9 10 8 7 7 7 5 5 6 8 7 8 8 7 8
3 9 11 8 8 8 8 8 9 6 4 5 6 11 10 7 14 15 18 16 14 9 9 8 8 8 7 8 9 11 11 10 7 5 6 5 5 6 6 7 9 8 8 7
9 8 8 9 6 7 7 7 5 8 1 3 4 8 8 9 11 10 15 11 11 18 16 11 9 8 8 8 10 11 10 8 7 11 10 10 9 5 6 6 7 6 8 8
10 8 4 6 7 8 8 7 6 5 1 6 4 10 7 5 10 10 18 14 17 16 11 13 11 8 8 8 8 7 9 10 10 11 11 12 8 9 2 5 5 7 7 8
11 8 9 14 9 9 7 2 2 3 4 1 3 5 7 9 13 19 17 15 15 17 18 17 15 11 7 7 7 8 9 9 9 10 8 9 10 8 7 7 10 8 7 7
6 2 7 8 2 6 7 6 6 5 3 6 12 9 7 10 16 12 6 9 15 17 15 14 12 11 8 6 7 8 9 7 8 10 11 12 15 13 10 8 8 6 5 5
3 5 3 5 6 3 5 8 2 4 1 10 5 9 19 5 9 10 11 12 14 16 16 16 17 15 11 10 8 7 9 8 8 12 12 12 13 13 13 11 9 10 6 5
12 7 14 8 9 9 8 10 9 9 6 5 3 10 9 10 7 6 8 16 17 17 16 17 17 14 12 11 10 8 8 9 10 12 12 11 11 8 8 8 8 6 7 6
7 8 4 1 4 12 6 9 4 2 2 2 7 8 8 4 7 3 7 13 16 17 17 17 15 14 13 11 11 12 11 9 10 11 10 10 8 9 8 8 7 7 7 6
5 2 3 1 5 3 7 7 3 1 3 7 5 8 11 6 13 8 8 11 11 12 13 15 15 14 12 12 8 9 9 12 10 10 10 10 9 8 9 9 10 9 7 6
5 4 2 3 7 14 6 5 5 5 6 6 4 10 7 11 12 12 14 15 15 16 15 14 13 12 12 10 10 11 11 11 11 10 8 10 9 10 9 10 9 9 8 8
13 4 5 10 4 3 3 7 7 7 7 6 3 23 5 3 4 9 11 13 13 15 15 14 14 13 13 14 12 13 11 12 11 11 10 10 10 10 10 9 9 7 9 7
11 6 2 5 3 3 6 9 17 1 4 16 6 19 3 2 3 6 9 9 12 14 13 13 13 15 16 15 14 13 12 12 11 11 11 10 10 10 9 8 8 8 8 7
13 6 15 21 6 9 8 10 13 18 11 6 27 25 1 4 6 6 8 8 10 14 16 15 15 16 15 14 14 13 13 12 12 12 12 12 11 10 10 9 9 9 8 8
13 14 8 18 5 5 7 14 20 23 31 16 31 26 16 10 12 11 8 9 11 14 17 18 18 17 15 15 15 14 14 14 13 13 12 12 10 10 10 9 9 8 8 7
3 10 12 21 9 8 8 9 20 24 23 27 27 37 7 9 6 8 13 15 17 17 19 19 17 17 17 17 17 15 14 14 14 14 14 11 12 12 11 10 10 9 8 7
11 7 5 20 9 8 9 36 21 20 18 22 27 41 5 12 11 9 11 15 19 19 20 20 20 17 16 17 16 16 15 13 13 13 11 12 13 12 12 10 10 10 10 7
8 12 6 12 7 14 15 9 28 31 33 24 25 21 10 14 14 11 10 17 18 18 17 17 16 15 14 14 13 12 13 14 15 13 11 12 12 12 10 10 12 9 8 10
18 13 8 8 14 10 15 6 11 15 26 26 30 28 24 7 2 8 8 9 14 13 13 14 13 14 15 17 16 15 14 15 14 14 13 13 14 13 13 14 13 10 9 7
5 18 13 5 8 12 6 2 3 7 19 12 22 25 22 9 10 18 7 8 9 11 10 10 10 9 15 14 15 16 15 14 16 15 14 13 14 14 14 14 12 8 7 9
6 6 16 15 11 5 6 5 2 9 8 2 1 2 8 9 8 2 8 4 5 5 8 8 11 13 12 13 15 14 12 15 11 9 8 9 11 13 12 10 7 7 9 6
10 10 6 6 5 10 9 3 8 4 1 2 2 3 6 5 3 5 6 6 8 9 8 7 9 8 7 9 11 9 10 7 7 8 9 10 10 8 7 10 7 6 8 8
6 8 8 10 6 2 1 2 3 1 1 1 2 3 6 6 4 6 6 7 6 7 7 6 10 9 6 6 8 10 5 7 7 8 8 7 6 7 8 10 8 5 7 8
2 1 3 4 5 4 4 4 3 1 2 3 4 3 4 5 6 4 5 6 6 4 6 5 9 8 5 3 4 4 5 6 7 6 6 5 7 5 4 3 5 6 7 6
3 6 5 3 3 3 7 6 4 5 5 4 3 3 5 7 5 5 5 4 4 5 4 5 7 6 4 5 4 2 4 6 5 4 4 4 4 5 4 2 4 4 2 6
5 6 6 5 5 3 3 11 9 7 5 5 5 2 2 5 7 6 5 4 5 6 3 5 5 7 4 6 5 3 2 5 7 5 4 4 4 3 4 4 0 7 9 11
Wind_Direction
210 123 202 202 195 200 212 225 249 268 227 146 217 245 230 217 222 216 213 203 196 187 168 159 155 153 147 144 137 141 137 142 133 130 119 99 97 88 76 68 54 55 59 60
72 229 223 194 204 217 246 258 267 288 205 166 261 249 250 203 224 209 210 209 196 158 161 161 160 162 173 160 153 154 152 156 157 130 110 106 108 85 89 82 67 57 60 66
177 217 196 191 226 197 217 205 231 224 255 259 289 269 246 241 224 216 227 217 191 174 166 164 172 175 170 166 166 161 161 152 121 116 110 106 101 88 91 76 79 57 70 72
229 223 167 166 216 181 236 207 207 239 199 247 158 281 250 232 243 215 227 196 186 176 164 161 169 174 175 175 162 144 132 129 129 131 132 138 131 130 126 111 101 86 74 80
229 182 192 224 208 167 230 115 169 212 197 313 251 296 261 210 249 251 236 212 186 173 163 168 172 169 169 152 140 134 132 134 139 135 130 125 117 121 125 109 105 93 82 79
213 199 160 193 84 163 152 78 41 40 81 256 229 202 219 224 233 255 230 187 169 165 167 162 157 147 155 151 140 142 134 139 141 137 136 137 137 138 132 128 120 119 113 104
178 206 178 142 102 32 125 105 297 323 304 245 229 219 252 261 249 231 214 183 168 164 162 161 161 166 161 163 156 151 146 147 137 134 134 139 142 143 144 144 144 139 126 108
194 255 170 190 184 168 194 163 163 214 210 260 14 240 248 227 249 280 221 181 166 166 169 168 166 163 164 166 163 157 151 145 144 139 139 142 146 146 145 144 140 125 124 126
173 250 80 75 158 154 203 209 183 15 35 16 217 282 294 253 266 264 180 165 176 172 169 166 164 167 169 167 169 163 155 150 146 142 139 143 142 143 142 130 122 127 124 131
210 248 7 338 85 58 148 160 96 74 223 253 261 248 231 214 242 213 198 186 180 171 166 169 170 168 170 172 163 153 157 157 150 139 143 143 140 134 134 133 135 139 141 131
180 168 310 119 204 176 160 196 198 134 162 196 286 257 213 217 222 199 205 194 182 179 176 173 172 169 167 161 163 164 161 154 149 145 136 140 143 142 138 141 146 152 140 145
203 137 186 207 253 248 278 188 166 158 219 237 180 260 172 132 252 196 203 193 186 182 176 173 170 162 165 172 173 174 166 159 159 153 148 151 149 144 143 150 157 152 147 147
171 200 161 324 339 355 207 217 213 255 61 226 180 262 21 98 169 202 185 183 182 173 168 168 170 173 177 180 178 174 169 165 161 155 154 152 153 151 153 156 158 157 145 148
165 171 205 232 215 152 198 201 208 208 227 217 235 260 90 203 223 214 210 178 172 177 175 177 180 185 184 180 177 174 172 170 165 161 161 163 164 162 164 165 164 161 157 152
165 214 196 239 178 151 195 202 203 207 225 213 257 243 232 217 218 215 180 164 173 185 188 191 188 184 181 179 177 176 179 173 169 167 169 174 166 163 163 167 171 163 160 166
180 230 203 252 222 223 229 218 215 226 235 239 255 262 151 232 236 180 193 184 191 196 198 196 189 184 185 183 183 179 178 176 171 176 181 170 169 172 176 174 171 168 165 167
162 183 154 244 175 229 250 234 223 229 231 224 235 246 204 243 228 216 210 195 200 200 195 192 190 186 183 186 181 183 177 165 176 181 176 174 176 178 181 174 170 175 178 165
166 200 197 247 137 220 245 174 219 223 235 224 246 249 204 231 236 229 204 194 201 199 191 187 180 181 178 169 171 165 165 172 183 186 180 178 174 181 174 174 185 178 176 184
195 188 214 225 225 265 273 186 153 182 245 226 232 247 248 216 167 260 212 210 205 194 187 182 179 168 160 166 170 168 169 177 181 191 187 177 178 181 179 188 189 186 179 181
222 201 207 168 224 224 290 185 171 104 260 187 209 235 237 133 224 252 164 163 164 160 159 152 153 151 161 169 162 166 180 179 191 187 186 180 185 185 188 192 187 178 185 196
174 192 215 226 237 274 240 243 282 153 240 296 343 271 139 194 231 261 139 98 106 125 145 132 148 168 169 154 162 178 170 193 184 166 159 168 182 189 192 184 174 170 186 173
173 170 193 218 236 245 172 86 176 207 18 187 146 164 129 134 75 86 94 104 109 117 113 108 117 116 113 130 142 143 178 172 144 143 159 176 183 182 172 176 175 173 174 188
212 187 179 196 200 343 139 10 359 18 137 148 141 157 140 126 125 136 134 135 129 133 122 111 127 123 123 135 147 164 176 140 140 152 177 177 164 175 174 179 174 158 178 198
249 74 165 132 200 215 225 175 194 27 70 29 30 97 130 123 141 122 127 131 125 116 125 118 116 118 127 126 95 93 143 143 142 160 166 151 168 160 139 128 158 176 185 201
159 137 157 315 261 311 253 236 177 142 118 108 80 88 126 132 141 142 129 112 111 113 96 117 132 130 131 109 114 120 134 131 136 126 143 148 134 146 137 108 162 169 187 187
194 169 176 210 195 162 230 193 186 172 165 111 101 90 95 138 151 131 130 141 140 136 110 95 89 116 125 117 104 71 124 141 141 144 152 157 146 141 145 152 135 229 215 221